Location: Bougoura
(13.1861°N, 5.0773°W)
Time: 00:54:37
(UTC+00:00)

Cosmos 1943 - Pass Details

Date: 18 September 2020
Orbit: 833 x 850 km, 71.0° (Epoch: 21 October)

Event Time Altitude Azimuth Distance (km) Brightness Sun altitude
Rises 19:53:59 0° 351° (N) 3,390 6.5 -23.9°
Reaches altitude 10° 19:56:28 10° 356° (N) 2,457 5.7 -24.5°
Enters shadow 20:00:52 47° 33° (NNE) 1,110 3.6 -25.5°
